Time,TemperatureF,DewpointF,PressureIn,WindDirection,WindDirectionDegrees,WindSpeedMPH,WindSpeedGustMPH,Humidity,HourlyPrecipIn,Conditions,Clouds,dailyrainin,SoftwareType,DateUTC
2013-01-06 00:00:00,43.0,41.0,30.22,NNE,30,0.0,3.0,93,0.00,,,0.06,weatherlink.com 1.10,2013-01-06 06:00:00,
2013-01-06 00:15:00,43.0,41.0,30.21,ENE,59,0.0,2.0,93,0.00,,,0.00,weatherlink.com 1.10,2013-01-06 06:15:00,
2013-01-06 00:30:00,42.9,41.0,30.22,ENE,58,0.0,3.0,94,0.00,,,0.00,weatherlink.com 1.10,2013-01-06 06:30:00,
2013-01-06 00:45:00,42.8,41.0,30.21,ESE,120,0.0,2.0,94,0.00,,,0.00,weatherlink.com 1.10,2013-01-06 06:45:00,
2013-01-06 01:00:00,42.7,41.0,30.22,ENE,58,0.0,1.0,94,0.02,,,0.02,weatherlink.com 1.10,2013-01-06 07:00:00,
2013-01-06 01:15:00,42.5,41.0,30.23,NNE,18,0.0,2.0,94,0.05,,,0.05,weatherlink.com 1.10,2013-01-06 07:15:00,
2013-01-06 01:30:00,42.5,41.0,30.22,ENE,65,0.0,3.0,95,0.08,,,0.08,weatherlink.com 1.10,2013-01-06 07:30:00,
2013-01-06 01:45:00,42.5,41.0,30.22,ENE,65,1.0,2.0,95,0.10,,,0.10,weatherlink.com 1.10,2013-01-06 07:45:00,
2013-01-06 02:00:00,42.6,41.0,30.22,North,356,1.0,1.0,95,0.08,,,0.10,weatherlink.com 1.10,2013-01-06 08:00:00,
2013-01-06 02:15:00,42.5,41.0,30.21,NNW,333,1.0,3.0,95,0.05,,,0.10,weatherlink.com 1.10,2013-01-06 08:15:00,
2013-01-06 02:30:00,42.3,41.0,30.21,ENE,65,3.0,4.0,95,0.03,,,0.11,weatherlink.com 1.10,2013-01-06 08:30:00,
2013-01-06 02:45:00,42.3,41.0,30.21,NE,54,4.0,4.0,95,0.01,,,0.11,weatherlink.com 1.10,2013-01-06 08:45:00,
2013-01-06 03:00:00,42.2,41.0,30.21,ENE,75,2.0,3.0,95,0.01,,,0.11,weatherlink.com 1.10,2013-01-06 09:00:00,
2013-01-06 03:15:00,42.2,41.0,30.22,ENE,73,2.0,4.0,95,0.02,,,0.12,weatherlink.com 1.10,2013-01-06 09:15:00,
2013-01-06 03:30:00,42.1,41.0,30.22,East,98,1.0,5.0,95,0.02,,,0.13,weatherlink.com 1.10,2013-01-06 09:30:00,
2013-01-06 03:45:00,42.0,41.0,30.23,ESE,105,1.0,6.0,95,0.04,,,0.15,weatherlink.com 1.10,2013-01-06 09:45:00,
2013-01-06 04:00:00,41.9,41.0,30.23,NNE,33,0.0,5.0,95,0.06,,,0.17,weatherlink.com 1.10,2013-01-06 10:00:00,
2013-01-06 04:15:00,41.8,41.0,30.22,ENE,65,3.0,3.0,95,0.06,,,0.18,weatherlink.com 1.10,2013-01-06 10:15:00,
2013-01-06 04:30:00,41.7,40.0,30.21,ENE,72,2.0,6.0,95,0.06,,,0.19,weatherlink.com 1.10,2013-01-06 10:30:00,
2013-01-06 04:45:00,41.6,40.0,30.22,East,94,1.0,6.0,95,0.04,,,0.20,weatherlink.com 1.10,2013-01-06 10:45:00,
2013-01-06 05:00:00,41.5,40.0,30.22,ENE,73,3.0,5.0,95,0.03,,,0.20,weatherlink.com 1.10,2013-01-06 11:00:00,
2013-01-06 05:15:00,41.4,40.0,30.22,ENE,64,0.0,3.0,95,0.01,,,0.20,weatherlink.com 1.10,2013-01-06 11:15:00,
2013-01-06 05:30:00,41.4,40.0,30.22,East,86,1.0,4.0,95,0.02,,,0.21,weatherlink.com 1.10,2013-01-06 11:30:00,
2013-01-06 05:46:00,41.5,40.0,30.24,WNW,292,1.0,2.0,95,0.02,,,0.22,weatherlink.com 1.10,2013-01-06 11:46:00,
2013-01-06 06:01:00,41.5,40.0,30.24,East,82,1.0,2.0,95,0.04,,,0.24,weatherlink.com 1.10,2013-01-06 12:01:00,
2013-01-06 06:16:00,41.4,40.0,30.24,NE,52,2.0,4.0,95,0.05,,,0.25,weatherlink.com 1.10,2013-01-06 12:16:00,
2013-01-06 06:31:00,41.4,40.0,30.25,NNW,347,1.0,4.0,95,0.04,,,0.25,weatherlink.com 1.10,2013-01-06 12:31:00,
2013-01-06 06:46:00,41.5,41.0,30.25,ENE,67,2.0,4.0,96,0.03,,,0.25,weatherlink.com 1.10,2013-01-06 12:46:00,
2013-01-06 07:01:00,41.5,41.0,30.25,NE,53,2.0,3.0,96,0.01,,,0.25,weatherlink.com 1.10,2013-01-06 13:01:00,
2013-01-06 07:16:00,41.6,41.0,30.26,ENE,69,1.0,2.0,96,0.01,,,0.26,weatherlink.com 1.10,2013-01-06 13:16:00,
2013-01-06 07:31:00,41.6,41.0,30.26,NE,42,2.0,5.0,96,0.01,,,0.26,weatherlink.com 1.10,2013-01-06 13:31:00,
2013-01-06 07:46:00,41.7,41.0,30.27,NE,48,1.0,4.0,96,0.01,,,0.26,weatherlink.com 1.10,2013-01-06 13:46:00,
2013-01-06 08:01:00,41.8,41.0,30.27,NE,46,2.0,4.0,96,0.01,,,0.26,weatherlink.com 1.10,2013-01-06 14:01:00,
2013-01-06 08:16:00,41.9,41.0,30.27,North,358,0.0,6.0,96,0.00,,,0.26,weatherlink.com 1.10,2013-01-06 14:16:00,
2013-01-06 08:31:00,42.1,41.0,30.27,ENE,77,2.0,6.0,96,0.00,,,0.26,weatherlink.com 1.10,2013-01-06 14:31:00,
2013-01-06 08:46:00,42.3,41.0,30.27,East,84,2.0,8.0,95,0.00,,,0.26,weatherlink.com 1.10,2013-01-06 14:46:00,
2013-01-06 09:01:00,42.5,41.0,30.29,NNE,32,0.0,6.0,95,0.00,,,0.26,weatherlink.com 1.10,2013-01-06 15:01:00,
2013-01-06 09:16:00,42.6,41.0,30.29,ENE,59,2.0,4.0,95,0.00,,,0.26,weatherlink.com 1.10,2013-01-06 15:16:00,
2013-01-06 09:31:00,42.7,41.0,30.29,NE,46,1.0,7.0,95,0.00,,,0.26,weatherlink.com 1.10,2013-01-06 15:31:00,
2013-01-06 09:46:00,42.9,42.0,30.29,NNE,33,3.0,7.0,95,0.00,,,0.26,weatherlink.com 1.10,2013-01-06 15:46:00,
2013-01-06 10:01:00,43.2,42.0,30.29,East,83,1.0,5.0,95,0.00,,,0.26,weatherlink.com 1.10,2013-01-06 16:01:00,
2013-01-06 10:16:00,43.5,42.0,30.29,NNE,29,1.0,6.0,94,0.00,,,0.26,weatherlink.com 1.10,2013-01-06 16:16:00,
2013-01-06 10:31:00,43.9,42.0,30.28,ESE,113,1.0,5.0,93,0.00,,,0.26,weatherlink.com 1.10,2013-01-06 16:31:00,
2013-01-06 10:46:00,44.7,43.0,30.28,ESE,108,0.0,5.0,93,0.00,,,0.26,weatherlink.com 1.10,2013-01-06 16:46:00,
2013-01-06 11:01:00,45.2,43.0,30.28,NE,53,1.0,7.0,92,0.00,,,0.26,weatherlink.com 1.10,2013-01-06 17:01:00,
2013-01-06 11:16:00,46.0,43.0,30.27,NNW,331,2.0,7.0,90,0.00,,,0.26,weatherlink.com 1.10,2013-01-06 17:16:00,
2013-01-06 11:31:00,46.2,44.0,30.26,ENE,66,2.0,7.0,90,0.00,,,0.26,weatherlink.com 1.10,2013-01-06 17:31:00,
2013-01-06 11:46:00,46.7,44.0,30.26,East,87,2.0,4.0,89,0.00,,,0.26,weatherlink.com 1.10,2013-01-06 17:46:00,
2013-01-06 12:01:00,47.1,44.0,30.25,East,95,1.0,5.0,88,0.00,,,0.26,weatherlink.com 1.10,2013-01-06 18:01:00,
2013-01-06 12:16:00,48.0,44.0,30.25,East,93,0.0,5.0,87,0.00,,,0.26,weatherlink.com 1.10,2013-01-06 18:16:00,
2013-01-06 12:31:00,48.4,44.0,30.24,NNW,340,1.0,4.0,86,0.00,,,0.26,weatherlink.com 1.10,2013-01-06 18:31:00,
2013-01-06 12:46:00,48.5,44.0,30.23,ENE,67,1.0,5.0,84,0.00,,,0.26,weatherlink.com 1.10,2013-01-06 18:46:00,
2013-01-06 13:01:00,48.7,43.0,30.23,NE,56,0.0,5.0,82,0.00,,,0.26,weatherlink.com 1.10,2013-01-06 19:01:00,
2013-01-06 13:16:00,49.1,43.0,30.22,NNW,338,1.0,6.0,80,0.00,,,0.26,weatherlink.com 1.10,2013-01-06 19:16:00,
2013-01-06 13:31:00,49.3,44.0,30.21,NNW,329,0.0,7.0,81,0.00,,,0.26,weatherlink.com 1.10,2013-01-06 19:31:00,
2013-01-06 14:02:00,51.4,44.0,30.21,NE,41,1.0,5.0,77,0.00,,,0.26,weatherlink.com 1.10,2013-01-06 20:02:00,
2013-01-06 14:17:00,52.6,45.0,30.21,East,84,2.0,7.0,75,0.00,,,0.26,weatherlink.com 1.10,2013-01-06 20:17:00,
2013-01-06 14:32:00,53.7,45.0,30.21,NNE,22,1.0,5.0,72,0.00,,,0.26,weatherlink.com 1.10,2013-01-06 20:32:00,
2013-01-06 14:47:00,53.8,44.0,30.21,NE,49,1.0,4.0,70,0.00,,,0.26,weatherlink.com 1.10,2013-01-06 20:47:00,
2013-01-06 15:02:00,54.6,44.0,30.20,NNE,25,5.0,5.0,67,0.00,,,0.26,weatherlink.com 1.10,2013-01-06 21:02:00,
2013-01-06 15:17:00,54.9,44.0,30.20,ENE,68,0.0,4.0,68,0.00,,,0.26,weatherlink.com 1.10,2013-01-06 21:17:00,
2013-01-06 15:32:00,55.6,44.0,30.21,ENE,65,3.0,5.0,65,0.00,,,0.26,weatherlink.com 1.10,2013-01-06 21:32:00,
2013-01-06 15:47:00,54.8,43.0,30.20,NNW,347,1.0,5.0,65,0.00,,,0.26,weatherlink.com 1.10,2013-01-06 21:47:00,
2013-01-06 16:02:00,54.5,43.0,30.21,NNW,331,2.0,5.0,65,0.00,,,0.26,weatherlink.com 1.10,2013-01-06 22:02:00,
2013-01-06 16:17:00,54.2,44.0,30.21,NW,308,1.0,2.0,68,0.00,,,0.26,weatherlink.com 1.10,2013-01-06 22:17:00,
2013-01-06 16:32:00,53.6,43.0,30.21,NNW,345,0.0,4.0,68,0.00,,,0.26,weatherlink.com 1.10,2013-01-06 22:32:00,
2013-01-06 16:47:00,52.4,43.0,30.21,North,349,2.0,3.0,70,0.00,,,0.26,weatherlink.com 1.10,2013-01-06 22:47:00,
2013-01-06 17:02:00,51.3,43.0,30.21,North,1,0.0,3.0,72,0.00,,,0.26,weatherlink.com 1.10,2013-01-06 23:02:00,
2013-01-06 17:17:00,49.7,43.0,30.22,North,1,0.0,0.0,77,0.00,,,0.26,weatherlink.com 1.10,2013-01-06 23:17:00,
2013-01-06 17:32:00,48.6,43.0,30.22,North,1,0.0,0.0,80,0.00,,,0.26,weatherlink.com 1.10,2013-01-06 23:32:00,
2013-01-06 17:47:00,47.5,42.0,30.23,North,1,0.0,0.0,81,0.00,,,0.26,weatherlink.com 1.10,2013-01-06 23:47:00,
2013-01-06 18:02:00,46.9,42.0,30.25,North,1,0.0,0.0,83,0.00,,,0.26,weatherlink.com 1.10,2013-01-07 00:02:00,
2013-01-06 18:17:00,46.6,42.0,30.25,North,1,0.0,0.0,83,0.00,,,0.26,weatherlink.com 1.10,2013-01-07 00:17:00,
2013-01-06 18:32:00,46.1,42.0,30.25,North,1,0.0,0.0,85,0.00,,,0.26,weatherlink.com 1.10,2013-01-07 00:32:00,
2013-01-06 18:47:00,45.7,42.0,30.25,NNW,336,0.0,1.0,85,0.00,,,0.26,weatherlink.com 1.10,2013-01-07 00:47:00,
2013-01-06 19:02:00,45.7,42.0,30.26,SSE,165,0.0,3.0,85,0.00,,,0.26,weatherlink.com 1.10,2013-01-07 01:02:00,
2013-01-06 19:17:00,45.7,41.0,30.27,NNW,329,0.0,1.0,84,0.00,,,0.26,weatherlink.com 1.10,2013-01-07 01:17:00,
2013-01-06 19:32:00,45.6,41.0,30.27,NNW,340,0.0,2.0,84,0.00,,,0.26,weatherlink.com 1.10,2013-01-07 01:32:00,
2013-01-06 19:47:00,45.0,41.0,30.27,NNE,23,1.0,1.0,85,0.00,,,0.26,weatherlink.com 1.10,2013-01-07 01:47:00,
2013-01-06 20:02:00,44.8,41.0,30.28,North,360,0.0,2.0,85,0.00,,,0.26,weatherlink.com 1.10,2013-01-07 02:02:00,
2013-01-06 20:17:00,44.6,40.0,30.28,North,354,0.0,3.0,85,0.00,,,0.26,weatherlink.com 1.10,2013-01-07 02:17:00,
2013-01-06 20:32:00,44.2,40.0,30.28,NW,315,0.0,3.0,85,0.00,,,0.26,weatherlink.com 1.10,2013-01-07 02:32:00,
2013-01-06 20:47:00,43.7,40.0,30.29,North,10,0.0,2.0,86,0.00,,,0.26,weatherlink.com 1.10,2013-01-07 02:47:00,
2013-01-06 21:02:00,43.0,39.0,30.29,NNW,345,0.0,2.0,87,0.00,,,0.26,weatherlink.com 1.10,2013-01-07 03:02:00,
2013-01-06 21:17:00,42.9,39.0,30.28,North,350,1.0,3.0,86,0.00,,,0.26,weatherlink.com 1.10,2013-01-07 03:17:00,
2013-01-06 21:32:00,42.9,39.0,30.29,NNE,22,1.0,2.0,86,0.00,,,0.26,weatherlink.com 1.10,2013-01-07 03:32:00,
2013-01-06 21:47:00,42.9,39.0,30.29,North,9,1.0,2.0,86,0.00,,,0.26,weatherlink.com 1.10,2013-01-07 03:47:00,
2013-01-06 22:02:00,42.8,39.0,30.29,NE,49,1.0,3.0,87,0.00,,,0.26,weatherlink.com 1.10,2013-01-07 04:02:00,
2013-01-06 22:17:00,42.4,39.0,30.28,NE,49,0.0,1.0,87,0.00,,,0.26,weatherlink.com 1.10,2013-01-07 04:17:00,
2013-01-06 22:32:00,41.7,38.0,30.29,ENE,74,0.0,2.0,88,0.00,,,0.26,weatherlink.com 1.10,2013-01-07 04:32:00,
2013-01-06 22:47:00,41.3,38.0,30.29,North,1,1.0,2.0,89,0.00,,,0.26,weatherlink.com 1.10,2013-01-07 04:47:00,
2013-01-06 23:02:00,40.7,38.0,30.29,ENE,57,0.0,1.0,89,0.00,,,0.26,weatherlink.com 1.10,2013-01-07 05:02:00,
2013-01-06 23:17:00,40.4,38.0,30.29,ENE,68,2.0,3.0,90,0.00,,,0.26,weatherlink.com 1.10,2013-01-07 05:17:00,
2013-01-06 23:32:00,39.9,38.0,30.29,ENE,76,0.0,1.0,91,0.00,,,0.26,weatherlink.com 1.10,2013-01-07 05:32:00,
2013-01-06 23:47:00,39.3,37.0,30.29,ENE,63,0.0,2.0,92,0.00,,,0.26,weatherlink.com 1.10,2013-01-07 05:47:00,